Meadow Lake, CO

11:34 PM MDT on September 21, 2017 (GMT -0600)
Meadow Lake

Weather History for KFLY - October, 2013

Change the Weather History Date:

Friday, October 11, 2013

  Actual Average (KCOS) Record (KCOS)
Temperature  
Mean Temperature 50 °F -  
Max Temperature 62 °F 66 °F 87 °F (2015)
Min Temperature 41 °F 38 °F 14 °F (1946)
Degree Days  
Heating Degree Days 14    
Moisture  
Dew Point 27 °F    
Average Humidity 49    
Maximum Humidity 98    
Minimum Humidity 24    
Precipitation  
Precipitation 0.00 in - - ()
Sea Level Pressure  
Sea Level Pressure 29.88 in    
Wind  
Wind Speed 13 mph (West)    
Max Wind Speed 24 mph    
Max Gust Speed 34 mph    
Visibility 10 miles    
Events Rain    
Averages and records for this station are not official NWS values.
T = Trace of Precipitation, MM = Missing Value Source: NWS Daily Summary

Daily Weather History Graph

Daily Weather History Graph

Search for Another Location

Airport or City:

Trip Planner

Search our weather history database for the weather conditions in past years. The results will help you decide how hot, cold, wet, or windy it might be!

Date:

Astronomy

Oct. 11, 2013 Rise Set
Actual Time 7:04 AM MDT 6:25 PM MDT
Civil Twilight 6:37 AM MDT 6:51 PM MDT
Nautical Twilight 6:06 AM MDT 7:22 PM MDT
Astronomical Twilight 5:35 AM MDT 7:53 PM MDT
Moon 1:46 PM MDT (10/11) No Moon Set
Length of Visible Light 12h 14m
Length of Day
11h 21m
Waxing Crescent, 48% of the Moon is Illuminated
Oct 11
Waxing Crescent
Oct 11
First Quarter
Oct 18
Full
Oct 26
Last Quarter
Nov 3
New

Hourly Weather History & Observations

Time (MDT) Temp. Windchill Dew Point Humidity Pressure Visibility Wind Dir Wind Speed Gust Speed Precip Events Conditions
12:14 AM 46.8 °F - 19.2 °F 33% 29.68 in 10.0 mi West 10.4 mph 27.6 mph N/A   Clear
12:34 AM 46.6 °F - 18.9 °F 33% 29.67 in 10.0 mi West 6.9 mph 20.7 mph N/A   Clear
12:54 AM 45.3 °F 37.6 °F 19.4 °F 36% 29.66 in 10.0 mi WSW 19.6 mph 31.1 mph N/A   Clear
1:14 AM 46.2 °F 39.0 °F 19.2 °F 34% 29.65 in 10.0 mi WSW 18.4 mph 34.5 mph N/A   Clear
1:34 AM 46.4 °F 38.3 °F 18.3 °F 33% 29.66 in 10.0 mi WSW 23.0 mph 34.5 mph N/A   Clear
1:54 AM 46.6 °F - 18.1 °F 32% 29.66 in 10.0 mi West 20.7 mph 33.4 mph N/A   Clear
2:14 AM 46.4 °F 41.1 °F 17.6 °F 32% 29.67 in 10.0 mi SW 11.5 mph 33.4 mph N/A   Clear
2:34 AM 45.7 °F 44.4 °F 18.0 °F 33% 29.68 in 10.0 mi NE 3.5 mph - N/A   Clear
2:54 AM 45.0 °F 39.3 °F 18.0 °F 34% 29.68 in 10.0 mi WSW 11.5 mph 19.6 mph N/A   Clear
3:14 AM 46.4 °F 45.2 °F 18.1 °F 32% 29.68 in 10.0 mi WNW 3.5 mph 20.7 mph N/A   Clear
3:34 AM 46.4 °F 40.4 °F 18.7 °F 33% 29.68 in 10.0 mi West 13.8 mph 23.0 mph N/A   Clear
3:54 AM 46.0 °F 39.0 °F 19.2 °F 34% 29.67 in 10.0 mi West 17.3 mph 28.8 mph N/A   Clear
4:14 AM 45.7 °F 38.0 °F 18.9 °F 34% 29.67 in 10.0 mi West 19.6 mph 25.3 mph N/A   Clear
4:34 AM 46.9 °F - 18.5 °F 32% 29.67 in 10.0 mi West 24.2 mph 34.5 mph N/A   Clear
4:54 AM 46.6 °F - 18.7 °F 33% 29.68 in 10.0 mi West 20.7 mph 31.1 mph N/A   Clear
5:14 AM 45.7 °F 37.8 °F 19.4 °F 35% 29.69 in 10.0 mi West 20.7 mph 27.6 mph N/A   Clear
5:34 AM 45.3 °F 37.3 °F 19.6 °F 36% 29.69 in 10.0 mi West 20.7 mph 26.5 mph N/A   Clear
5:54 AM 45.1 °F 37.9 °F 19.6 °F 36% 29.70 in 10.0 mi West 17.3 mph 24.2 mph N/A   Clear
6:14 AM 44.4 °F 37.2 °F 20.1 °F 38% 29.72 in 10.0 mi West 16.1 mph - N/A   Clear
6:34 AM 45.5 °F 38.3 °F 19.8 °F 36% 29.73 in 10.0 mi West 17.3 mph 26.5 mph N/A   Clear
6:54 AM 45.3 °F 37.8 °F 20.1 °F 37% 29.74 in 10.0 mi West 18.4 mph 27.6 mph N/A   Clear
7:14 AM 45.0 °F 37.4 °F 20.5 °F 38% 29.75 in 10.0 mi West 18.4 mph 24.2 mph N/A   Clear
7:34 AM 45.7 °F 38.6 °F 20.7 °F 37% 29.76 in 10.0 mi West 17.3 mph - N/A   Clear
7:54 AM 47.3 °F - 20.8 °F 35% 29.78 in 10.0 mi West 13.8 mph 21.9 mph N/A   Clear
8:14 AM 48.7 °F - 21.2 °F 34% 29.79 in 10.0 mi West 16.1 mph 21.9 mph N/A   Clear
8:34 AM 50.5 °F - 21.2 °F 32% 29.80 in 10.0 mi WNW 20.7 mph 26.5 mph N/A   Clear
8:54 AM 51.8 °F - 21.9 °F 31% 29.81 in 10.0 mi WNW 16.1 mph 24.2 mph N/A   Clear
9:14 AM 53.2 °F - 22.1 °F 30% 29.83 in 10.0 mi WNW 17.3 mph 21.9 mph N/A   Clear
9:34 AM 54.9 °F - 22.8 °F 29% 29.84 in 10.0 mi WNW 20.7 mph 31.1 mph N/A   Clear
9:54 AM 55.2 °F - 22.1 °F 28% 29.85 in 10.0 mi WNW 19.6 mph - N/A   Clear
10:14 AM 56.5 °F - 22.3 °F 27% 29.87 in 10.0 mi WNW 16.1 mph 25.3 mph N/A   Clear
10:34 AM 57.4 °F - 22.6 °F 26% 29.87 in 10.0 mi WNW 13.8 mph 19.6 mph N/A   Clear
10:54 AM 58.8 °F - 23.7 °F 26% 29.87 in 10.0 mi WNW 12.7 mph 17.3 mph N/A   Clear
11:14 AM 59.7 °F - 23.0 °F 24% 29.88 in 10.0 mi NW 9.2 mph 16.1 mph N/A   Mostly Cloudy
11:34 AM 60.3 °F - 23.2 °F 24% 29.88 in 10.0 mi NW 11.5 mph 20.7 mph N/A   Mostly Cloudy
11:54 AM 60.4 °F - 23.0 °F 24% 29.89 in 10.0 mi NNW 6.9 mph 21.9 mph N/A   Mostly Cloudy
12:14 PM 59.7 °F - 24.3 °F 26% 29.89 in 10.0 mi North 8.1 mph 16.1 mph N/A   Mostly Cloudy
12:34 PM 59.7 °F - 23.7 °F 25% 29.90 in 10.0 mi NNE 10.4 mph - N/A   Overcast
12:54 PM 57.7 °F - 23.0 °F 26% 29.90 in 10.0 mi NNE 12.7 mph 17.3 mph N/A   Overcast
1:14 PM 57.2 °F - 24.1 °F 28% 29.90 in 10.0 mi NNE 8.1 mph - N/A Rain Light Rain
1:34 PM 56.5 °F - 25.0 °F 30% 29.90 in 10.0 mi NE 13.8 mph - N/A   Overcast
1:54 PM 56.1 °F - 25.3 °F 31% 29.90 in 10.0 mi NE 11.5 mph - N/A   Overcast
2:14 PM 54.9 °F - 24.6 °F 31% 29.91 in 10.0 mi North 6.9 mph 10.4 mph N/A   Overcast
2:34 PM 53.1 °F - 28.8 °F 39% 29.93 in 10.0 mi North 16.1 mph 19.6 mph N/A   Overcast
2:54 PM 48.4 °F - 33.3 °F 56% 29.94 in 10.0 mi North 11.5 mph 25.3 mph N/A Rain Light Rain
3:14 PM 49.6 °F - 34.2 °F 55% 29.95 in 10.0 mi North 10.4 mph 18.4 mph N/A   Overcast
3:34 PM 50.9 °F - 33.8 °F 52% 29.97 in 10.0 mi NNE 5.8 mph - N/A   Overcast
3:54 PM 52.0 °F - 30.7 °F 44% 29.98 in 10.0 mi Calm Calm - N/A   Mostly Cloudy
4:14 PM 51.1 °F - 32.5 °F 49% 29.99 in 10.0 mi ENE 6.9 mph - N/A   Mostly Cloudy
4:34 PM 49.6 °F - 33.1 °F 53% 30.01 in 10.0 mi SSE 16.1 mph 19.6 mph N/A Rain Light Rain
4:54 PM 46.9 °F - 36.7 °F 68% 30.03 in 10.0 mi South 11.5 mph - N/A   Light Drizzle
5:14 PM 43.9 °F 38.3 °F 38.5 °F 81% 30.04 in 10.0 mi South 10.4 mph - N/A Rain Light Rain
5:34 PM 43.0 °F 39.5 °F 38.8 °F 85% 30.05 in 10.0 mi South 5.8 mph - N/A Rain Rain
5:54 PM 43.7 °F - 39.2 °F 84% 30.06 in 10.0 mi Calm Calm - N/A Rain Light Rain
6:14 PM 43.7 °F 40.3 °F 38.8 °F 83% 30.04 in 10.0 mi SE 5.8 mph - N/A   Overcast
6:34 PM 42.8 °F - 38.8 °F 86% 30.04 in 10.0 mi Calm Calm - N/A   Overcast
6:54 PM 42.8 °F - 39.0 °F 86% 30.04 in 10.0 mi Calm Calm - N/A   Overcast
7:14 PM 42.6 °F 39.9 °F 37.9 °F 83% 30.05 in 10.0 mi SSW 4.6 mph - N/A   Scattered Clouds
7:34 PM 41.2 °F 36.6 °F 37.8 °F 88% 30.05 in 10.0 mi SW 6.9 mph - N/A   Mostly Cloudy
7:54 PM 42.8 °F 41.1 °F 36.1 °F 77% 30.06 in 10.0 mi WSW 3.5 mph - N/A   Overcast
8:14 PM 42.8 °F 38.6 °F 37.4 °F 81% 30.06 in 10.0 mi WNW 6.9 mph - N/A   Overcast
8:34 PM 42.8 °F 39.3 °F 37.9 °F 83% 30.07 in 10.0 mi West 5.8 mph - N/A   Overcast
8:54 PM 42.6 °F 39.0 °F 38.5 °F 85% 30.08 in 10.0 mi West 5.8 mph - N/A   Overcast
9:14 PM 42.8 °F 38.6 °F 37.8 °F 82% 30.09 in 10.0 mi West 6.9 mph - N/A   Overcast
9:34 PM 43.2 °F 41.5 °F 37.4 °F 80% 30.10 in 10.0 mi SSW 3.5 mph - N/A   Overcast
9:54 PM 43.0 °F 40.3 °F 37.4 °F 81% 30.10 in 10.0 mi SSW 4.6 mph - N/A   Overcast
10:14 PM 42.8 °F 39.3 °F 37.9 °F 83% 30.12 in 10.0 mi SW 5.8 mph - N/A   Light Drizzle
10:34 PM 42.8 °F 37.0 °F 39.2 °F 87% 30.13 in 10.0 mi WNW 10.4 mph - N/A Rain Light Rain
10:54 PM 43.0 °F 39.5 °F 38.5 °F 84% 30.12 in 10.0 mi South 5.8 mph - N/A   Overcast
11:14 PM 41.5 °F 39.6 °F 39.6 °F 93% 30.13 in 10.0 mi SSE 3.5 mph - N/A   Overcast
11:34 PM 41.5 °F 39.6 °F 40.5 °F 96% 30.13 in 10.0 mi SSW 3.5 mph - N/A   Overcast
11:54 PM 41.5 °F 39.6 °F 41.0 °F 98% 30.14 in 10.0 mi WSW 3.5 mph - N/A   Drizzle